FW3748 Weather Reports


Display with metric or nautical units.
time (UTC)temp
F
wind
direction
speed
MPH
gust
MPH
rain 1hr
in
rain 24hr
in
rain mn
in
humidity
%
barometer
mb
20190221154020 51 22 1.0 2.0 0.00 0.00 0.00 75 1016.7
20190221153522 51 34 2.0 3.0 0.00 0.00 0.00 74 1016.7
20190221153022 51 56 1.0 2.0 0.00 0.00 0.00 75 1016.6
20190221152518 51 67 1.0 2.0 0.00 0.00 0.00 74 1016.5
20190221152024 51 84 2.0 3.0 0.00 0.00 0.00 74 1016.6
20190221151518 51 112 0.0 1.0 0.00 0.00 0.00 75 1016.6
20190221151020 51 112 1.0 2.0 0.00 0.00 0.00 74 1016.6
20190221150522 51 84 1.0 2.0 0.00 0.00 0.00 74 1016.6
20190221150021 50 39 1.0 2.0 0.00 0.00 0.00 74 1016.5
20190221145517 50 135 1.0 2.0 0.00 0.00 0.00 75 1016.3
20190221145026 50 69 2.0 3.0 0.00 0.00 0.00 74 1016.2
20190221144518 50 67 0.0 0.0 0.00 0.00 0.00 74 1016.2
20190221144020 50 101 2.0 3.0 0.00 0.00 0.00 73 1016.1
20190221143521 50 45 2.0 3.0 0.00 0.00 0.00 74 1016.0
20190221143021 50 360 1.0 2.0 0.00 0.00 0.00 73 1015.9
20190221142518 50 30 2.0 3.0 0.00 0.00 0.00 74 1015.8
20190221142024 50 337 1.0 2.0 0.00 0.00 0.00 73 1015.7
20190221141517 50 58 1.0 2.0 0.00 0.00 0.00 74 1015.4
20190221141021 50 45 0.0 0.0 0.00 0.00 0.00 73 1015.4
20190221140522 50 89 1.0 1.0 0.00 0.00 0.00 73 1015.5
20190221140020 50 360 0.0 1.0 0.00 0.00 0.00 72 1015.6
20190221135517 49 22 2.0 2.0 0.00 0.00 0.00 72 1015.6
20190221135025 49 22 1.0 2.0 0.00 0.00 0.00 72 1015.4
20190221134517 49 22 1.0 2.0 0.00 0.00 0.00 72 1015.4
20190221134021 49 45 0.0 0.0 0.00 0.00 0.00 73 1015.5
20190221133522 49 56 1.0 2.0 0.00 0.00 0.00 72 1015.2
20190221133020 49 45 1.0 2.0 0.00 0.00 0.00 72 1015.1
20190221132518 49 69 1.0 2.0 0.00 0.00 0.00 73 1015.1
20190221132024 49 112 0.0 0.0 0.00 0.00 0.00 73 1015.1
20190221131518 49 50 1.0 2.0 0.00 0.00 0.00 72 1015.0
20190221131020 49 76 2.0 3.0 0.00 0.00 0.00 73 1015.0
20190221130521 49 97 0.0 1.0 0.00 0.00 0.00 72 1015.1
20190221130021 49 100 2.0 2.0 0.00 0.00 0.00 73 1015.0
20190221125517 49 105 0.0 1.0 0.00 0.00 0.00 73 1015.1
20190221125025 49 112 0.0 0.0 0.00 0.00 0.00 72 1015.2
20190221124518 49 112 0.0 1.0 0.00 0.00 0.00 73 1015.1
20190221124020 49 67 0.0 1.0 0.00 0.00 0.00 72 1015.1
20190221123521 49 30 1.0 2.0 0.00 0.00 0.00 74 1015.0
20190221123021 49 45 1.0 2.0 0.00 0.00 0.00 73 1015.0
20190221122517 49 22 1.0 2.0 0.00 0.00 0.00 73 1015.0
20190221122025 49 31 1.0 2.0 0.00 0.00 0.00 73 1015.0
20190221121517 49 45 0.0 1.0 0.00 0.00 0.00 73 1015.1
20190221121020 49 45 1.0 2.0 0.00 0.00 0.00 72 1014.9
20190221120522 48 45 1.0 2.0 0.00 0.00 0.00 72 1014.9
20190221120020 48 67 1.0 2.0 0.00 0.00 0.00 73 1014.9
20190221115517 48 40 1.0 2.0 0.00 0.00 0.00 73 1014.8
20190221115024 48 49 1.0 1.0 0.00 0.00 0.00 75 1014.8
20190221114518 48 360 0.0 0.0 0.00 0.00 0.00 76 1015.0
20190221114019 48 360 0.0 0.0 0.00 0.00 0.00 76 1014.9
20190221113521 48 360 0.0 0.0 0.00 0.00 0.00 77 1014.9
20190221113021 48 360 0.0 0.0 0.00 0.00 0.00 77 1014.9
20190221112518 47 360 0.0 1.0 0.00 0.00 0.00 79 1014.9
20190221112024 47 315 0.0 0.0 0.00 0.00 0.00 80 1014.9
20190221111517 47 315 0.0 0.0 0.00 0.00 0.00 82 1015.0
20190221111019 46 315 0.0 0.0 0.00 0.00 0.00 83 1014.9
20190221110522 46 315 0.0 0.0 0.00 0.00 0.00 86 1014.9
20190221110020 46 315 0.0 0.0 0.00 0.00 0.00 88 1014.9
20190221105517 46 315 0.0 0.0 0.00 0.00 0.00 88 1014.9
20190221105023 46 315 0.0 0.0 0.00 0.00 0.00 89 1015.0
20190221104517 46 315 0.0 0.0 0.00 0.00 0.00 89 1015.1
20190221104019 46 315 0.0 0.0 0.00 0.00 0.00 89 1015.0
20190221103521 45 315 0.0 0.0 0.00 0.00 0.00 88 1015.1
20190221103020 45 315 0.0 0.0 0.00 0.00 0.00 89 1014.9
20190221102517 45 315 0.0 0.0 0.00 0.00 0.00 88 1014.8
20190221102024 45 315 0.0 0.0 0.00 0.00 0.00 88 1014.9
20190221101518 45 315 0.0 0.0 0.00 0.00 0.00 88 1015.1
20190221101020 45 315 0.0 0.0 0.00 0.00 0.00 89 1015.1
20190221100521 45 315 0.0 0.0 0.00 0.00 0.00 89 1015.2
20190221100021 45 315 0.0 0.0 0.00 0.00 0.00 89 1015.2
20190221095517 44 315 0.0 0.0 0.00 0.00 0.00 90 1015.3
20190221095024 44 315 0.0 0.0 0.00 0.00 0.00 90 1015.3
20190221094517 44 315 0.0 0.0 0.00 0.00 0.00 90 1015.3
20190221094019 43 315 0.0 0.0 0.00 0.00 0.00 90 1015.5
20190221093521 43 315 0.0 0.0 0.00 0.00 0.00 91 1015.3
20190221093020 43 315 0.0 0.0 0.00 0.00 0.00 91 1015.4
20190221092518 42 315 0.0 0.0 0.00 0.00 0.00 91 1015.6
20190221092024 42 315 0.0 0.0 0.00 0.00 0.00 90 1015.5
20190221091517 42 315 0.0 0.0 0.00 0.00 0.00 89 1015.6
20190221091019 42 315 0.0 0.0 0.00 0.00 0.00 90 1015.4
20190221090522 42 315 0.0 0.0 0.00 0.00 0.00 90 1015.5
20190221090020 43 315 0.0 0.0 0.00 0.00 0.00 90 1015.6
20190221085517 42 315 0.0 0.0 0.00 0.00 0.00 91 1015.8
20190221085023 42 315 0.0 0.0 0.00 0.00 0.00 90 1015.9
20190221084518 42 315 0.0 0.0 0.00 0.00 0.00 92 1015.9
20190221084019 42 315 0.0 0.0 0.00 0.00 0.00 91 1016.0
20190221083522 42 315 0.0 0.0 0.00 0.00 0.00 90 1015.9
20190221083021 42 315 0.0 0.0 0.00 0.00 0.00 91 1015.9
20190221082517 41 315 0.0 0.0 0.00 0.00 0.00 90 1015.9
20190221082023 41 315 0.0 0.0 0.00 0.00 0.00 90 1015.8
20190221081517 41 315 0.0 0.0 0.00 0.00 0.00 91 1015.7
20190221081020 41 315 0.0 0.0 0.00 0.00 0.00 91 1015.9
20190221080521 40 315 0.0 0.0 0.00 0.00 0.00 91 1016.1
20190221080019 40 315 0.0 0.0 0.00 0.00 0.00 92 1016.1
20190221075518 40 315 0.0 0.0 0.00 0.00 0.00 92 1016.1
20190221075024 40 315 0.0 0.0 0.00 0.00 0.00 92 1016.0
20190221074518 40 315 0.0 0.0 0.00 0.00 0.00 91 1016.0
20190221074020 40 315 0.0 0.0 0.00 0.00 0.00 92 1016.0
20190221073521 40 315 0.0 0.0 0.00 0.00 0.00 93 1016.2
20190221073020 39 315 0.0 0.0 0.00 0.00 0.00 93 1016.1
20190221072517 39 315 0.0 0.0 0.00 0.00 0.00 93 1016.2
20190221072024 39 315 0.0 0.0 0.00 0.00 0.00 93 1016.2
20190221071518 38 315 0.0 0.0 0.00 0.00 0.00 94 1016.1
20190221071019 38 315 0.0 0.0 0.00 0.00 0.00 93 1016.1
20190221070522 38 315 0.0 0.0 0.00 0.00 0.00 93 1016.1
20190221070018 38 315 0.0 0.0 0.00 0.00 0.00 93 1016.0
20190221065517 38 315 0.0 0.0 0.00 0.00 0.00 93 1016.1
20190221065025 38 315 0.0 0.0 0.00 0.00 0.00 93 1016.1
20190221064517 37 315 0.0 0.0 0.00 0.00 0.00 93 1016.0
20190221064020 37 315 0.0 0.0 0.00 0.00 0.00 93 1016.2
20190221063521 37 315 0.0 0.0 0.00 0.00 0.00 93 1016.0
20190221063020 37 315 0.0 0.0 0.00 0.00 0.00 94 1015.9
20190221062518 37 315 0.0 0.0 0.00 0.00 0.00 93 1015.8
20190221062024 37 315 0.0 0.0 0.00 0.00 0.00 94 1016.0
20190221061518 36 315 0.0 0.0 0.00 0.00 0.00 95 1016.0
20190221061020 36 315 0.0 0.0 0.00 0.00 0.00 94 1015.9
20190221060521 36 315 0.0 0.0 0.00 0.00 0.00 94 1015.9
20190221055517 35 315 0.0 0.0 0.00 0.00 0.00 92 1016.0
20190221055025 35 315 0.0 0.0 0.00 0.00 0.00 92 1015.9
20190221054518 35 315 1.0 1.0 0.00 0.00 0.00 92 1015.9
20190221054020 35 315 0.0 0.0 0.00 0.00 0.00 92 1015.8
20190221053521 35 315 0.0 0.0 0.00 0.00 0.00 92 1015.9
20190221053021 36 315 0.0 0.0 0.00 0.00 0.00 90 1016.2
20190221052518 36 315 0.0 0.0 0.00 0.00 0.00 90 1016.2
20190221052024 36 315 0.0 0.0 0.00 0.00 0.00 90 1016.1
20190221051517 37 315 0.0 0.0 0.00 0.00 0.00 89 1015.9
20190221051020 37 315 0.0 0.0 0.00 0.00 0.00 89 1016.0
20190221050534 37 315 0.0 0.0 0.00 0.00 0.00 89 1016.0
20190221050014 37 315 0.0 0.0 0.00 0.00 0.00 89 1015.9
20190221045517 37 315 0.0 0.0 0.00 0.00 0.00 89 1016.0
20190221045025 37 315 0.0 0.0 0.00 0.00 0.00 89 1016.0
20190221044518 38 315 0.0 0.0 0.00 0.00 0.00 89 1016.0
20190221044020 38 315 1.0 1.0 0.00 0.00 0.00 87 1015.9
20190221043522 38 315 1.0 1.0 0.00 0.01 0.00 87 1015.9
20190221043022 38 315 0.0 0.0 0.00 0.01 0.00 87 1015.9
20190221042521 39 315 0.0 0.0 0.00 0.01 0.00 86 1015.8
20190221042034 39 315 0.0 0.0 0.00 0.01 0.00 86 1015.6
20190221041518 39 315 0.0 1.0 0.00 0.01 0.00 85 1015.6
20190221041021 39 315 0.0 0.0 0.00 0.01 0.00 85 1015.5
20190221040521 40 315 0.0 0.0 0.00 0.01 0.00 85 1015.5
20190221040021 40 315 0.0 0.0 0.00 0.01 0.00 85 1015.5
20190221035518 40 315 0.0 1.0 0.00 0.01 0.00 84 1015.4
20190221035025 40 315 0.0 0.0 0.00 0.01 0.00 84 1015.6
20190221034518 40 315 0.0 0.0 0.00 0.01 0.00 84 1015.4
20190221034020 41 315 0.0 0.0 0.00 0.01 0.00 84 1015.6
20190221033527 41 315 0.0 0.0 0.00 0.01 0.00 83 1015.7
20190221033021 41 315 0.0 0.0 0.00 0.01 0.00 81 1015.7
20190221032518 41 315 0.0 0.0 0.00 0.01 0.00 81 1015.7
20190221032026 41 315 1.0 1.0 0.00 0.01 0.00 81 1015.6
20190221031517 41 315 0.0 0.0 0.00 0.01 0.00 80 1015.6
20190221031021 42 315 1.0 1.0 0.00 0.02 0.00 79 1015.5
20190221030523 42 315 0.0 0.0 0.00 0.02 0.00 79 1015.6
20190221030021 43 315 0.0 1.0 0.00 0.02 0.00 77 1015.5
20190221025518 43 315 0.0 0.0 0.00 0.02 0.00 75 1015.5
20190221025025 44 315 0.0 0.0 0.00 0.02 0.00 73 1015.5
20190221024518 44 315 0.0 0.0 0.00 0.02 0.00 71 1015.6
20190221024021 45 315 0.0 1.0 0.00 0.02 0.00 69 1015.7
20190221023523 46 326 0.0 0.0 0.00 0.02 0.00 68 1015.8
20190221023021 46 337 0.0 0.0 0.00 0.02 0.00 66 1015.4
20190221022519 47 337 1.0 1.0 0.00 0.02 0.00 63 1015.4
20190221022026 48 67 0.0 0.0 0.00 0.02 0.00 62 1015.5
20190221021518 49 67 0.0 0.0 0.00 0.02 0.00 60 1015.2
20190221021021 50 67 0.0 0.0 0.00 0.02 0.00 57 1015.3
20190221020522 51 67 0.0 0.0 0.00 0.02 0.00 55 1015.3
20190221020022 52 67 0.0 0.0 0.00 0.02 0.00 54 1015.3
20190221015518 52 67 0.0 0.0 0.00 0.02 0.00 52 1015.3
20190221015026 53 67 0.0 0.0 0.00 0.02 0.00 50 1015.4
20190221014518 54 67 0.0 0.0 0.00 0.02 0.00 49 1015.5
20190221014021 54 67 0.0 0.0 0.00 0.02 0.00 49 1015.2
20190221013522 54 44 1.0 2.0 0.00 0.02 0.00 48 1015.1
20190221013023 53 25 3.0 4.0 0.00 0.02 0.00 50 1014.9
20190221012518 53 11 6.0 7.0 0.00 0.02 0.00 48 1014.8
20190221012025 53 351 3.0 3.0 0.00 0.02 0.00 47 1015.2
20190221011518 54 75 0.0 1.0 0.00 0.02 0.00 45 1015.4
20190221011021 54 90 0.0 0.0 0.00 0.02 0.00 45 1015.4
20190221010522 55 90 0.0 0.0 0.00 0.02 0.00 44 1015.3
20190221010022 55 90 0.0 0.0 0.00 0.02 0.00 42 1015.3
20190221005518 55 90 0.0 0.0 0.00 0.02 0.00 42 1015.4
20190221005024 56 100 0.0 0.0 0.00 0.02 0.00 42 1015.4
20190221004518 56 135 1.0 1.0 0.00 0.02 0.00 40 1015.2
20190221004021 56 135 1.0 2.0 0.00 0.02 0.00 39 1015.3
20190221003522 57 135 2.0 2.0 0.00 0.02 0.00 37 1015.3
20190221003021 57 135 2.0 2.0 0.00 0.02 0.00 37 1015.4
20190221002517 57 140 0.0 1.0 0.00 0.02 0.00 36 1015.5
20190221002025 58 157 0.0 1.0 0.00 0.02 0.00 36 1015.5
20190221001518 58 157 1.0 1.0 0.00 0.02 0.00 35 1015.4
20190221001021 59 157 2.0 2.0 0.00 0.02 0.00 34 1015.3
20190221000522 59 135 0.0 1.0 0.00 0.02 0.00 33 1015.4
20190221000022 60 135 1.0 2.0 0.00 0.02 0.00 31 1015.4
20190220235518 60 152 3.0 4.0 0.00 0.02 0.00 32 1015.3
20190220235026 60 157 2.0 3.0 0.00 0.02 0.00 32 1015.2
20190220234518 61 157 3.0 4.0 0.00 0.02 0.00 31 1015.2
20190220233523 61 142 2.0 3.0 0.00 0.02 0.00 31 1015.1
20190220233022 61 157 3.0 3.0 0.00 0.02 0.00 31 1015.0
20190220232517 61 157 2.0 3.0 0.00 0.02 0.00 31 1014.9
20190220232025 61 135 2.0 3.0 0.00 0.02 0.00 30 1015.0
20190220231518 61 157 3.0 4.0 0.00 0.02 0.00 31 1015.0
20190220231021 62 157 0.0 1.0 0.00 0.02 0.00 31 1015.1
20190220230521 62 157 2.0 2.0 0.00 0.02 0.00 31 1015.1
20190220230020 62 180 0.0 1.0 0.00 0.02 0.00 30 1015.0
20190220225517 62 157 3.0 4.0 0.00 0.02 0.00 30 1015.1
20190220225025 62 135 3.0 4.0 0.00 0.02 0.00 30 1015.1
20190220224518 63 157 4.0 5.0 0.00 0.02 0.00 31 1015.1
20190220224021 63 157 0.0 1.0 0.00 0.02 0.00 31 1015.2
20190220223522 63 157 4.0 5.0 0.00 0.02 0.00 30 1015.3
20190220223021 63 160 3.0 4.0 0.00 0.02 0.00 30 1015.3
20190220222518 63 135 2.0 3.0 0.00 0.02 0.00 30 1015.4
20190220222025 63 135 2.0 3.0 0.00 0.02 0.00 29 1015.4
20190220221518 63 157 4.0 5.0 0.00 0.02 0.00 31 1015.4
20190220221021 64 150 1.0 1.0 0.00 0.02 0.00 30 1015.6
20190220220523 64 135 1.0 2.0 0.00 0.02 0.00 29 1015.5
20190220220021 65 135 0.0 1.0 0.00 0.02 0.00 29 1015.5
20190220215518 65 247 0.0 0.0 0.00 0.02 0.00 30 1015.4
20190220215024 65 135 0.0 1.0 0.00 0.02 0.00 29 1015.4
20190220214517 64 75 2.0 3.0 0.00 0.03 0.00 32 1015.5
20190220214021 64 337 0.0 0.0 0.00 0.03 0.00 34 1015.5
20190220213522 62 67 0.0 1.0 0.00 0.03 0.00 34 1015.5
20190220213020 62 137 3.0 4.0 0.00 0.03 0.00 35 1015.4
20190220212518 62 146 4.0 5.0 0.00 0.03 0.00 34 1015.4
20190220212026 62 146 1.0 2.0 0.00 0.03 0.00 34 1015.5
20190220211518 62 140 3.0 4.0 0.00 0.03 0.00 34 1015.5
20190220210522 64 157 2.0 3.0 0.00 0.03 0.00 35 1015.4
20190220210023 64 51 3.0 4.0 0.00 0.03 0.00 36 1015.5
20190220205518 63 359 1.0 2.0 0.00 0.03 0.00 35 1015.5
20190220205026 63 360 2.0 4.0 0.00 0.03 0.00 36 1015.7
20190220204519 63 135 2.0 3.0 0.00 0.03 0.00 36 1015.7
20190220204021 62 345 4.0 6.0 0.00 0.03 0.00 37 1015.7
20190220203523 62 34 2.0 4.0 0.00 0.03 0.00 38 1015.8
20190220203022 63 119 2.0 3.0 0.00 0.03 0.00 37 1015.9
20190220202518 63 90 1.0 2.0 0.00 0.03 0.00 37 1015.9
20190220202025 63 45 3.0 5.0 0.00 0.03 0.00 39 1016.0
20190220201518 63 22 1.0 2.0 0.00 0.03 0.00 40 1016.1
20190220201021 63 29 3.0 5.0 0.00 0.03 0.00 41 1016.2
20190220200522 63 7 4.0 5.0 0.00 0.03 0.00 43 1016.2
20190220200022 63 303 2.0 3.0 0.00 0.03 0.00 42 1016.3
20190220195518 63 157 1.0 2.0 0.00 0.03 0.00 43 1016.3
20190220195025 63 180 0.0 2.0 0.00 0.03 0.00 43 1016.5
20190220194518 62 360 2.0 3.0 0.00 0.03 0.00 43 1016.6
20190220194021 61 22 4.0 5.0 0.00 0.03 0.00 43 1016.6
20190220193522 61 352 4.0 5.0 0.00 0.03 0.00 43 1016.8
20190220193021 61 139 1.0 2.0 0.00 0.03 0.00 44 1016.8
20190220192518 61 129 0.0 1.0 0.00 0.03 0.00 45 1017.0
20190220192027 60 354 1.0 3.0 0.00 0.03 0.00 44 1017.1
20190220191518 60 330 1.0 2.0 0.00 0.03 0.00 45 1017.3
20190220191021 60 135 2.0 3.0 0.00 0.03 0.00 45 1017.3
20190220190522 60 34 2.0 3.0 0.00 0.03 0.00 45 1017.3
20190220190022 60 342 3.0 3.0 0.00 0.03 0.00 47 1017.6
20190220185519 59 11 1.0 2.0 0.00 0.03 0.00 49 1017.6
20190220185026 59 333 2.0 3.0 0.00 0.03 0.00 49 1017.7
20190220184518 58 348 5.0 7.0 0.00 0.03 0.00 47 1017.8
20190220184020 58 90 1.0 1.0 0.00 0.03 0.00 48 1017.8
20190220183523 58 37 3.0 4.0 0.00 0.03 0.00 49 1017.9
20190220183020 58 128 2.0 3.0 0.00 0.03 0.00 48 1018.0
20190220182517 58 11 2.0 3.0 0.00 0.03 0.00 49 1018.2
20190220182025 58 44 3.0 3.0 0.00 0.03 0.00 50 1018.4
20190220181519 58 107 1.0 2.0 0.00 0.03 0.00 54 1018.5
20190220181021 57 202 0.0 1.0 0.00 0.04 0.00 54 1018.5
20190220180521 57 337 4.0 5.0 0.00 0.04 0.00 53 1018.6
20190220180021 56 52 3.0 5.0 0.00 0.04 0.00 54 1018.6
20190220175518 56 299 1.0 2.0 0.00 0.04 0.00 54 1018.6
20190220175024 56 128 3.0 4.0 0.00 0.04 0.00 55 1018.6
20190220174517 56 22 2.0 3.0 0.00 0.04 0.00 57 1018.6
20190220174021 56 352 5.0 7.0 0.00 0.04 0.00 58 1018.7
20190220173521 55 337 1.0 2.0 0.00 0.06 0.00 59 1018.7
20190220173022 54 337 2.0 3.0 0.00 0.06 0.00 60 1018.7
20190220172517 53 5 2.0 3.0 0.00 0.06 0.00 60 1018.7
20190220172025 53 297 2.0 2.0 0.00 0.06 0.00 60 1018.7
20190220171518 53 50 4.0 5.0 0.00 0.06 0.00 60 1018.7
20190220171019 53 352 5.0 6.0 0.00 0.06 0.00 62 1018.8
20190220170522 53 325 4.0 7.0 0.00 0.08 0.00 62 1018.7
20190220170021 53 360 6.0 9.0 0.00 0.08 0.00 64 1018.8
20190220165518 53 354 4.0 6.0 0.00 0.08 0.00 64 1018.7
20190220165024 52 354 2.0 3.0 0.00 0.08 0.00 66 1018.8
20190220164518 51 344 2.0 4.0 0.00 0.08 0.00 67 1019.0
20190220164021 51 41 2.0 4.0 0.00 0.08 0.00 67 1018.9
20190220163522 51 337 3.0 5.0 0.00 0.08 0.00 68 1018.9
20190220163021 50 357 4.0 6.0 0.00 0.08 0.00 68 1019.0
20190220162518 50 337 4.0 6.0 0.00 0.08 0.00 68 1019.0
20190220162025 50 344 6.0 8.0 0.00 0.10 0.00 70 1019.0
20190220161517 50 337 4.0 6.0 0.00 0.10 0.00 72 1019.0
20190220161020 49 337 4.0 5.0 0.00 0.11 0.00 72 1019.0
20190220160523 49 326 3.0 4.0 0.00 0.11 0.00 74 1019.1
20190220160020 48 2 2.0 4.0 0.00 0.11 0.00 75 1019.1
20190220155517 47 42 3.0 5.0 0.00 0.11 0.00 77 1018.8
20190220155025 47 360 3.0 5.0 0.00 0.15 0.00 77 1018.9
20190220154518 46 352 5.0 6.0 0.00 0.18 0.00 77 1018.9